FENGYUN 1C DEB, 33740

Orbit data source: Space-Track

FENGYUN 1C DEB, 33740 is space debris in SSO originally from a launch on Mon, 10 May 1999 UTC launched from the Taiyaun Space Center, China (TSC). Fengyun 1C debris stems from the Chinese weather satellite Fengyun-1C, which was intentionally destroyed by a Chinese anti-satellite missile in 2007. This event dramatically increased the amount of space debris, with thousands of trackable fragments posing hazards to satellites and human spaceflight. The Fengyun 1C debris cloud has become a focal point in discussions about space sustainability and the need for international regulations to prevent the creation of new debris.

Loading next visibility...
Identifier
33740, 1999-025DJD
Orbit
SSO
Country
Flag of CNCN / PRC
Related business
Manufacturer
Unknown
Mission
Spacecraft
Bus & Motor
Unknown
Mass
Unknown
Launch date (UTC)
1999-05-10 (27 years ago)
Launch vehicle
Unknown
Launch site
Taiyaun Space Center, China (TSC)
Object type
Payload
Rocket body
Debris
Shape & HBR
Unknown shape, 0.1 m
Radar Cross Section
Small (<0.1 m²)

Expand to show TLE details & history
Last TLE update: 2 days ago

TLE from 2 days ago
0 FENGYUN 1C DEB
1 33740U 99025DJD 26206.27971076  .00000151  00000-0  10511-3 0  9995
2 33740  98.6800 217.2589 0000753 171.7650 188.3535 14.12436247933165
Epoch: 2026-07-25T06:42Z
TLE epoch observation values (Epoch: 2026-07-25T06:42:47.009Z)
Latitude
-0.00002°
Longitude
173.56877°
Altitude
854.491 km
Speed
7.425 km/s
True Right ascension
14h 29m 02s
True Declination
0° 00' 00"
Sunlit
Object was in daylight at epoch
Visualization orbit readout
Latitude
Unknown
Longitude
Unknown
Altitude
Unknown
Speed
Unknown
Apparent Right ascension
Unknown
Apparent Declination
Unknown
Sunlit
N/A
Visualization observer readout
Local Sidereal Time
22:26:05
Azimuth
Unknown
Elevation
Unknown
Doppler factor
Unknown
Orbital elements
Apogee altitude
848.758 km
Perigee altitude
847.67 km
Semi-major axis
7,226.351 km
Eccentricity
0.00008
Inclination
98.68°
RAAN
217.2589°
Arg. of periapsis
171.765°
True anomaly
188.35225°
Mean anomaly
188.3535°
Eccentric anomaly
188.35287°
Mean motion
3.53317 °/min
Orbital period
101.89 mins
BSTAR
0.00010511
Loading maneuver chart data...
Computing Atmospheric mass density...

Documentation

Showing up to 5 results
|